PA5W Weather Reports


time (UTC)temp
F
wind
direction
speed
knots
gust
knots
rain 1hr
in
rain 24hr
in
rain mn
in
humidity
%
barometer
mb
20260507011537 43 330 1.7 4.3 0.00 0.00 0.00 89 1012.0
20260507010041 43 348 1.7 3.5 0.00 0.00 0.00 89 1011.8
20260507004531 43 334 2.6 5.2 0.00 0.00 0.00 89 1011.8
20260507003031 43 348 0.9 2.6 0.00 0.00 0.00 89 1011.8
20260507001533 43 348 1.7 3.5 0.00 0.00 0.00 89 1011.8
20260507000033 43 346 1.7 4.3 0.00 0.00 0.00 89 1011.9
20260506234528 43 336 1.7 3.5 0.00 0.00 0.00 89 1011.9
20260506233027 44 339 1.7 3.5 0.00 0.00 0.00 89 1011.9
20260506231527 44 348 1.7 4.3 0.00 0.00 0.00 89 1011.9
20260506230024 45 355 1.7 2.6 0.00 0.00 0.00 88 1012.0
20260506224521 45 355 0.9 2.6 0.00 0.00 0.00 88 1011.8
20260506223019 45 355 0.9 2.6 0.00 0.00 0.00 87 1011.8
20260506221516 46 355 0.9 3.5 0.00 0.00 0.00 86 1011.7
20260506220022 47 5 0.9 2.6 0.00 0.00 0.00 86 1011.7
20260506214511 47 5 0.9 3.5 0.00 0.00 0.00 84 1011.6
20260506213009 48 18 3.5 7.0 0.00 0.00 0.00 83 1011.5
20260506211505 48 355 3.5 8.7 0.00 0.00 0.00 82 1011.5
20260506210003 49 5 4.3 8.7 0.00 0.00 0.00 81 1011.2
20260506204503 49 20 4.3 7.8 0.00 0.00 0.00 80 1011.2
20260506203003 50 17 2.6 7.0 0.00 0.00 0.00 78 1011.1
20260506201600 50 19 4.3 9.6 0.00 0.00 0.00 77 1011.0
20260506200111 51 23 4.3 7.8 0.00 0.00 0.00 75 1010.7
20260506194616 51 38 4.3 11.3 0.00 0.00 0.00 73 1010.6
20260506193055 52 28 5.2 10.4 0.00 0.00 0.00 73 1010.4
20260506191552 52 17 4.3 8.7 0.00 0.00 0.00 71 1010.1
20260506190050 53 18 6.1 12.2 0.00 0.00 0.00 70 1009.9
20260506184549 53 9 4.3 10.4 0.00 0.00 0.00 69 1009.7
20260506183101 53 350 3.5 8.7 0.00 0.00 0.00 69 1009.6
20260506181553 53 20 7.0 11.3 0.00 0.00 0.00 68 1009.4
20260506180045 53 32 7.8 12.2 0.00 0.00 0.00 67 1009.3
20260506174543 53 25 6.1 13.0 0.00 0.00 0.00 67 1009.2
20260506173052 54 349 7.0 13.9 0.00 0.00 0.00 68 1009.0
20260506171546 54 21 6.1 15.6 0.00 0.00 0.00 69 1008.8
20260506170046 55 355 7.0 13.9 0.00 0.00 0.00 69 1008.8
20260506164549 56 48 6.1 14.8 0.00 0.00 0.00 64 1008.7
20260506163042 56 346 7.0 13.9 0.00 0.00 0.00 64 1008.5
20260506161546 56 30 4.3 11.3 0.00 0.00 0.00 67 1008.5
20260506160045 55 28 5.2 11.3 0.00 0.00 0.00 68 1008.5
20260506154539 55 44 2.6 5.2 0.00 0.00 0.00 67 1008.5
20260506153038 54 70 4.3 8.7 0.00 0.00 0.00 64 1008.5
20260506151558 54 40 5.2 12.2 0.00 0.00 0.00 63 1008.5
20260506150038 54 120 4.3 9.6 0.00 0.00 0.00 65 1008.5
20260506144537 54 65 4.3 15.6 0.00 0.00 0.00 63 1008.4
20260506143045 55 69 7.0 15.6 0.00 0.00 0.00 62 1008.5
20260506141536 55 36 6.1 15.6 0.00 0.00 0.00 58 1008.5
20260506140038 56 16 7.0 13.9 0.00 0.00 0.00 54 1008.4
20260506134536 56 348 7.0 15.6 0.00 0.00 0.00 53 1008.3
20260506133039 57 67 7.8 16.5 0.00 0.00 0.00 50 1008.4
20260506131536 57 29 7.0 15.6 0.00 0.00 0.00 48 1008.2
20260506130034 58 91 9.6 16.5 0.00 0.00 0.00 44 1008.2
20260506124533 58 51 7.0 15.6 0.00 0.00 0.00 46 1008.1
20260506123031 57 52 7.8 16.5 0.00 0.00 0.00 46 1008.0
20260506121529 57 57 7.8 14.8 0.00 0.00 0.00 48 1008.0
20260506120031 56 16 7.8 13.0 0.00 0.00 0.00 47 1007.9
20260506114538 56 62 6.1 13.0 0.00 0.00 0.00 51 1007.9
20260506113026 56 59 7.0 13.9 0.00 0.00 0.00 52 1007.9
20260506111526 56 57 4.3 11.3 0.00 0.00 0.00 53 1007.9
20260506110029 56 104 5.2 13.9 0.00 0.00 0.00 53 1007.9
20260506104527 56 24 8.7 14.8 0.00 0.00 0.00 51 1008.0
20260506103025 57 55 4.3 12.2 0.00 0.00 0.00 53 1007.8
20260506101542 56 13 7.0 17.4 0.00 0.00 0.00 53 1007.8
20260506100019 55 32 7.8 18.2 0.00 0.00 0.00 52 1007.7
20260506094518 55 40 5.2 12.2 0.00 0.00 0.00 58 1007.6
20260506093015 54 80 7.0 13.9 0.00 0.00 0.00 62 1007.5
20260506091519 54 30 7.0 11.3 0.00 0.00 0.00 68 1007.6
20260506090011 54 5 6.1 13.0 0.00 0.00 0.00 67 1007.6
20260506084517 54 15 7.0 13.9 0.00 0.00 0.00 68 1007.4
20260506083008 53 23 7.0 12.2 0.00 0.00 0.00 74 1007.4
20260506081605 53 26 4.3 13.0 0.00 0.00 0.00 77 1007.3
20260506061516 49 42 7.0 12.2 0.00 0.00 0.00 89 1007.0
20260506044602 49 342 7.0 11.3 0.00 0.00 0.00 88 1007.0
20260506043056 49 26 5.2 9.6 0.00 0.00 0.00 88 1007.0
20260506041605 49 360 3.5 9.6 0.00 0.00 0.00 88 1006.9
20260506040054 49 355 4.3 9.6 0.00 0.00 0.00 87 1006.9
20260506034555 49 5 4.3 8.7 0.00 0.00 0.00 86 1007.0
20260506033055 49 340 6.1 12.2 0.00 0.00 0.00 86 1007.0
20260506031554 49 342 6.1 11.3 0.00 0.00 0.00 86 1007.2
20260506030048 49 20 5.2 11.3 0.00 0.00 0.00 85 1007.3
20260506024545 49 355 5.2 11.3 0.00 0.00 0.00 85 1007.5
20260506023044 49 5 6.1 13.0 0.00 0.00 0.00 86 1007.5
20260506021544 49 350 4.3 12.2 0.00 0.00 0.00 86 1007.5
20260506020042 49 17 4.3 13.0 0.00 0.00 0.00 86 1007.6
20260506014548 50 360 5.2 12.2 0.00 0.00 0.00 85 1007.6
20260506013040 50 350 4.3 11.3 0.00 0.00 0.00 84 1007.7